Flag for United Kingdom Weather past 2 weeks in Aylesbury, England, United Kingdom

Now
65 °F

Mild.


Feels Like: 65 °F
Forecast: 54 / 66 °F
Wind: 6 mph from Southwest

Location: High Wicombe Hqstc

Current Time: Sep 30, 2014 at 9:16:01 PM

Latest Report: Sep 30, 2014 at 6:00 PM


Visibility: 19 mi

Pressure: 30.20 "Hg

Humidity: 66%

Dew point: 53 °F

Location of AylesburyLocation

Historic Weather in Aylesbury — Graph

°F

Aylesbury temperature yesterday

Maximum temperature yesterday: 63 °F (at 5:00 PM)
Minimum temperature yesterday: 54 °F (at 4:00 AM)
Average temperature yesterday: 59 °F

Past Weeks' High & Low Weather Summary

 TemperatureHumidityPressure
High75 °F (Sep 18, 3:00 PM)100% (Sep 17, 1:00 AM)30.36 "Hg (Sep 17, 1:00 AM)
Low44 °F (Sep 22, 7:00 AM)50% (Sep 22, 5:00 PM)29.78 "Hg (Sep 18, 3:00 PM)
Average59 °F83%30.09 "Hg
* Reported Sep 15 6:00 PM — Sep 30 6:00 PM, Aylesbury, Weather by CustomWeather, © 2014

Note: Actual official high and low records may vary slightly from our data, if they occured in-between our weather recording intervals... More about our weather records

Advertising

Aylesbury weather history for previous 24 hours

 ConditionsComfort  
Time TempWeatherWind HumidityBarometerVisibility
6:00 PM
Sep 30
65 °FMild.6 mph66%30.20 "Hg19 mi
5:00 PM67 °FMild.N/A60%30.20 "Hg25 mi
3:00 PM68 °FMild.5 mphN/A30.21 "Hg14 mi
2:00 PM69 °FMild.8 mph58%30.21 "Hg22 mi
1:00 PM68 °FMild.6 mph64%30.22 "Hg17 mi
12:00 PM65 °FMild.6 mph72%30.23 "Hg19 mi
11:00 AM62 °FMild.5 mph79%30.23 "Hg10 mi
10:00 AM58 °FFog.5 mph94%30.23 "Hg6 mi
9:00 AM57 °FFog.3 mph98%30.22 "Hg3 mi
8:00 AM56 °FCool.5 mph100%30.22 "Hg2 mi
7:00 AM56 °FFog.1 mph99%30.20 "Hg2 mi
6:00 AM56 °FFog.1 mph99%30.19 "Hg2 mi
5:00 AM56 °FFog.3 mph99%30.18 "Hg3 mi
4:00 AM55 °FFog.3 mph100%30.18 "Hg2 mi
3:00 AM55 °FFog.3 mph99%30.18 "Hg1 mi
2:00 AM56 °FFog.3 mph99%30.17 "Hg1 mi
1:00 AM56 °FFog.5 mph98%30.17 "Hg1 mi
12:00 AM56 °FFog.5 mph98%30.16 "Hg1 mi
11:00 PM
Sep 29
56 °FFog.3 mph95%30.16 "Hg2 mi
10:00 PM57 °FSmoke.6 mph93%30.15 "Hg4 mi
9:00 PM59 °FSmoke.5 mph88%30.14 "Hg6 mi
Weather by CustomWeather, © 2014

See weather overviewHow to use our weather pages